Weather History for Hamilton, OH

Change the Weather History Date:

Saturday, April 20, 2013

  Actual Average (KCVG) Record (KCVG)
Temperature  
Mean Temperature 44 °F 56 °F  
Max Temperature 51 °F 66 °F 89 °F (1976)
Min Temperature 37 °F 45 °F 24 °F (1983)
Degree Days  
Heating Degree Days 22 10  
Month to date heating degree days 258  
Since 1 July heating degree days 4759  
Cooling Degree Days 0 1  
Month to date cooling degree days 8  
Year to date cooling degree days 10  
Growing Degree Days 0 (Base 50)    
Moisture  
Dew Point 29 °F    
Average Humidity 60    
Maximum Humidity 83    
Minimum Humidity 39    
Precipitation  
Precipitation 0.00 in 0.13 in 1.51 in (1920)
Month to date precipitation 2.53  
Year to date precipitation 12.30  
Snow  
Snow 0.00 in 0.00 in 0.00 in ()
Month to date snowfall 0.5  
Since 1 July snowfall 22.1  
Snow Depth -    
Sea Level Pressure  
Sea Level Pressure 30.23 in    
Wind  
Wind Speed 9 mph (WNW)    
Max Wind Speed 14 mph    
Max Gust Speed 22 mph    
Visibility 10 miles    
Events      
T = Trace of Precipitation, MM = Missing Value Source: NWS Daily Summary

Daily Weather History Graph

Daily Weather History Graph

Search for Another Location

Airport:

Trip Planner

Search our weather history database for the weather conditions in past years. The results will help you decide how hot, cold, wet, or windy it might be!

Date:

Astronomy

Apr. 20, 2013 Rise Set
Actual Time 6:53 AM EDT 8:20 PM EDT
Civil Twilight 6:25 AM EDT 8:49 PM EDT
Nautical Twilight 5:51 AM EDT 9:23 PM EDT
Astronomical Twilight 5:16 AM EDT 9:58 PM EDT
Moon 3:05 PM EDT (4/20) 3:40 AM EDT (4/20)
Length of Visible Light 14h 23m
Length of Day
13h 27m
Waxing Gibbous, 71% of the Moon is Illuminated
Apr 20
Waxing Gibbous
Apr 25
Full
May 2
Last Quarter
May 9
New
May 18
First Quarter

Hourly Weather History & Observations

Time (EDT) Temp. Windchill Dew Point Humidity Pressure Visibility Wind Dir Wind Speed Gust Speed Precip Events Conditions
12:53 AM 39.9 °F 33.4 °F 32.0 °F 73% 30.02 in 10.0 mi WSW 10.4 mph 16.1 mph N/A   Clear
1:53 AM 39.9 °F 33.9 °F 33.1 °F 77% 30.04 in 10.0 mi WSW 9.2 mph - N/A   Scattered Clouds
2:53 AM 39.0 °F 34.0 °F 33.1 °F 79% 30.04 in 10.0 mi SW 6.9 mph - N/A   Clear
3:53 AM 37.9 °F 32.7 °F 33.1 °F 83% 30.06 in 10.0 mi WSW 6.9 mph - N/A   Scattered Clouds
4:53 AM 39.0 °F 32.3 °F 33.1 °F 79% 30.08 in 10.0 mi WSW 10.4 mph - N/A   Mostly Cloudy
5:53 AM 37.0 °F 34.5 °F 32.0 °F 82% 30.09 in 10.0 mi WSW 3.5 mph - N/A   Clear
6:53 AM 37.0 °F 32.4 °F 32.0 °F 82% 30.12 in 10.0 mi West 5.8 mph - N/A   Clear
7:53 AM 39.0 °F 34.8 °F 32.0 °F 76% 30.16 in 10.0 mi West 5.8 mph - N/A   Partly Cloudy
8:53 AM 39.0 °F 31.4 °F 28.9 °F 67% 30.19 in 10.0 mi WNW 12.7 mph 20.7 mph N/A   Partly Cloudy
9:53 AM 41.0 °F 34.3 °F 28.0 °F 60% 30.22 in 10.0 mi WNW 11.5 mph 18.4 mph N/A   Mostly Cloudy
10:53 AM 44.1 °F 38.6 °F 27.0 °F 51% 30.25 in 10.0 mi West 10.4 mph 18.4 mph N/A   Scattered Clouds
11:53 AM 46.0 °F 41.9 °F 28.9 °F 51% 30.27 in 10.0 mi West 8.1 mph - N/A   Mostly Cloudy
12:53 PM 46.0 °F 40.6 °F 26.1 °F 46% 30.27 in 10.0 mi West 11.5 mph 18.4 mph N/A   Mostly Cloudy
1:53 PM 48.9 °F - 28.9 °F 46% 30.27 in 10.0 mi Variable 5.8 mph 18.4 mph N/A   Scattered Clouds
2:53 PM 50.0 °F - 28.0 °F 43% 30.29 in 10.0 mi West 9.2 mph 19.6 mph N/A   Scattered Clouds
3:53 PM 50.0 °F - 27.0 °F 41% 30.30 in 10.0 mi NW 9.2 mph 20.7 mph N/A   Mostly Cloudy
4:53 PM 50.0 °F - 27.0 °F 41% 30.30 in 10.0 mi NW 9.2 mph 21.9 mph N/A   Scattered Clouds
5:53 PM 50.0 °F - 26.1 °F 39% 30.32 in 10.0 mi NW 13.8 mph 19.6 mph N/A   Partly Cloudy
6:53 PM 48.9 °F - 27.0 °F 43% 30.33 in 10.0 mi NW 11.5 mph - N/A   Clear
7:53 PM 46.0 °F 41.4 °F 25.0 °F 44% 30.34 in 10.0 mi North 9.2 mph - N/A   Clear
8:53 PM 42.1 °F 38.4 °F 26.1 °F 53% 30.36 in 10.0 mi North 5.8 mph - N/A   Clear
9:53 PM 39.9 °F 37.8 °F 26.1 °F 58% 30.40 in 10.0 mi North 3.5 mph - N/A   Clear
10:53 PM 39.0 °F 36.8 °F 26.1 °F 60% 30.41 in 10.0 mi NE 3.5 mph - N/A   Clear
11:53 PM 37.0 °F 33.3 °F 27.0 °F 67% 30.43 in 10.0 mi North 4.6 mph - N/A   Clear